{"data":{"norad_id":60363,"epoch":"2026-05-25T03:59:14.532288Z","epoch_age_seconds":60939,"freshness":"FRESH","line1":"1 60363U 24138J   26145.16614042  .00001196  00000+0  52517-4 0  9998","line2":"2 60363  53.1616 314.5802 0001036  92.8712 267.2408 15.30195826102332","mean_motion":15.30195826,"eccentricity":0.0001036,"inclination_deg":53.1616,"raan_deg":314.5802,"arg_perigee_deg":92.8712,"mean_anomaly_deg":267.2408,"bstar":5.2517e-5,"rev_number":10233,"period_min":94.105602402813,"perigee_km":474.51752369374,"apogee_km":475.93754082483,"semimajor_km":6853.3645322593,"source":"CELESTRAK","updated_at":"2026-05-25T13:38:19.239295Z"}}